Regional Weather Roundup
Issued by NWS

Home | Current Version | Previous Version | Graphics & Text | Print | Product List | Glossary On
Versions: 1 2 3 4 5 6 7 8 9 10 11 12 13 14 15 16 17 18 19 20 21 22 23 24 25 26 27
000
ASUS45 KCYS 202310
RWRWY

WYOMING REGIONAL WEATHER ROUNDUP
NATIONAL WEATHER SERVICE CHEYENNE WY
400 PM MST TUE FEB 20 2018

NOTE:  "FAIR" INDICATES FEW OR NO CLOUDS BELOW 12,000 FEET
WITH NO SIGNIFICANT WEATHER AND/OR OBSTRUCTIONS TO VISIBILITY.

WYZ001-210000-
YELLOWSTONE NATIONAL PARK

CITY           SKY/WX    TMP DP  RH WIND       PRES   REMARKS
LK YELLOWSTONE   N/A      4  -6  63 W9G16     29.82R WCI -10
W YELLOWSTONE  NOT AVBL

$$
WYZ002>013-054>058-071-098>099-210000-
NORTHERN WYOMING

CITY           SKY/WX    TMP DP  RH WIND       PRES   REMARKS
JACKSON        CLOUDY    11  -3  53 S17       29.92R WCI  -6
CODY           FAIR       2  -7  66 NE6       29.98R WCI  -9
GREYBULL       FAIR       4  -6  63 VRB3      30.09R
WORLAND        FAIR       5  -9  52 CALM      30.05R
SHERIDAN       FAIR      10  -7  46 CALM      30.06R
BUFFALO        FAIR       5  -7  57 S10       29.99S WCI -10
GILLETTE       FAIR       3  -8  60 SW8       30.05R WCI -10
HULETT         FAIR       5  -8  56 MISG      30.06R
NEWCASTLE      FAIR       3  -8  60 NW7       30.10R WCI  -9

$$
WYZ014>020-022>026-101>103-210000-
CENTRAL WYOMING

CITY           SKY/WX    TMP DP  RH WIND       PRES   REMARKS
BIG PINEY      CLOUDY    11   2  67 E6        29.91R WCI   1
PINEDALE       LGT SNOW   7   1  78 E5        29.91R WCI  -2
DUBOIS           N/A    N/A N/A N/A MISG        N/A
LANDER         FAIR       5  -5  63 E5        29.93R WCI  -4
RIVERTON       FAIR       1  -8  66 CALM      29.95R
CASPER         FAIR      12   2  64 SW10      29.96R WCI  -1
DOUGLAS        FAIR       2  -5  72 SE3       30.03R

$$
WYZ021-027>030-104>119-210000-
SOUTHERN WYOMING

CITY           SKY/WX    TMP DP  RH WIND       PRES   REMARKS
EVANSTON       FAIR      11   5  77 W13       29.93R WCI  -4
FORT BRIDGER   FAIR      14   4  64 W20G25    29.96R WCI  -3
ROCK SPRINGS   FAIR      14   2  58 W16       29.94R WCI  -2
DIXON          FAIR      15   0  51 W7        30.01R WCI   5
RAWLINS        FAIR      11   1  64 SW18      29.92R WCI  -7
SARATOGA       FAIR      12   1  62 W13       29.93S WCI  -3
LARAMIE        FAIR      11   0  61 W10       29.86R WCI  -3
CHEYENNE       FAIR      19   5  54 MISG      29.92R
TORRINGTON     FAIR      13  -1  54 NW6       30.07S WCI   4
PINE BLUFFS    FAIR       5  -2  72 S9        30.02R WCI  -9

$$




USA.gov is the U.S. government's official web portal to all federal, state and local government web resources and services.